Preview of NWS' New Version of Forecast
This preview is not operational and should not be used for support decisions.

Regional Weather Roundup (RWR)

Issued by National Weather Service (NWS)

                            
000
ASUS43 KBIS 212002
RWRND 

NORTH DAKOTA REGIONAL WEATHER ROUNDUP
NATIONAL WEATHER SERVICE BISMARCK ND
300 PM CDT SUN APR 21 2019

NOTE: "FAIR" INDICATES FEW OR NO CLOUDS BELOW 12,000 FEET WITH NO
SIGNIFICANT WEATHER AND/OR OBSTRUCTIONS TO VISIBILITY.


NDZ001>003-009>011-017-212100-
NORTHWEST NORTH DAKOTA
  
CITY           SKY/WX    TMP DP  RH WIND       PRES   REMARKS
WILLISTON      CLOUDY    61  24  24 NW10      30.10S                  
MINOT          CLOUDY    63  33  32 VRB7      30.06R                  
MINOT AFB      CLOUDY    63  33  32 SW5       30.04S                  
$$
 
NDZ018>021-031>035-040>046-212100-
SOUTHWEST NORTH DAKOTA
  
CITY           SKY/WX    TMP DP  RH WIND       PRES   REMARKS
BISMARCK       CLOUDY    58  36  43 NE13      30.04S                  
DICKINSON      CLOUDY    57  38  48 NE17G23   30.07S                  
GARRISON         N/A     59  31  34 MISG      30.06R                  
HETTINGER ARPT LGT RAIN  49  43  80 N16G28    30.07R                  
$$
 
NDZ004>008-012>016-024-026-027-054-212100-
NORTHEAST NORTH DAKOTA
  
CITY           SKY/WX    TMP DP  RH WIND       PRES   REMARKS
GRAND FORKS    CLOUDY    63  39  41 N7        30.02R                  
DEVILS LAKE    CLOUDY    59  35  40 E9        30.05S                  
$$
 
NDZ022-023-025-028>030-036>039-047>053-212100-
SOUTHEAST NORTH DAKOTA
  
CITY           SKY/WX    TMP DP  RH WIND       PRES   REMARKS
FARGO          PTSUNNY   63  41  44 NE24G32   29.96R                  
JAMESTOWN      CLOUDY    57  41  55 NE17G26   30.00R                  
$$